Find Starlink 5416

NORAD ID: 54855 Int'l Des: 2022-177 Owner: SPXS Country: US Constellation: starlink operational
LEOCIRCULAR

Current View

Loading 3D Globe...

About Starlink 5416

Description loading...

Upcoming Passes

Passes for default location (London). Set your location on the main map for personalized predictions.

Altitude History

Loading altitude history...

Two-Line Element Set

1 54855U 22177AM 26145.12600704 -.00000188 00000-0 27107-5 0 9994
2 54855 43.0068 49.6476 0001617 272.8937 87.1729 15.27574296188783
Epoch: May 25, 2026 • Age: 30 hours

Current Status

Altitude 490.4 km
Velocity 7.62 km/s
Sub-Earth Point -30.60°S, 9.82°W
Launch Date Dec 28, 2022
Age 3.4 years
Type internet

Technical Details

Classification Payload
Mass 305.00 kg
Dry Mass 290.00 kg
Total Mass 305.00 kg
Length 0.20 m
Diameter 2.80 m
Span 9.00 m
Shape Box + pan
Manufacturer SPXS
Bus Type Starlink
Phase Status In Orbit
Owner/State SPXS/US

Most Searched